Time,TemperatureF,DewpointF,PressureIn,WindDirection,WindDirectionDegrees,WindSpeedMPH,WindSpeedGustMPH,Humidity,HourlyPrecipIn,Conditions,Clouds,dailyrainin,SoftwareType,DateUTC
2013-06-28 00:01:00,79.8,79.8,29.85,SW,235,18.0,23.0,100,0.00,,---,0.00,VWS V14.00,2013-06-28 04:01:00,
2013-06-28 00:06:00,79.8,79.8,29.85,SW,229,16.0,27.0,100,0.00,,---,0.00,VWS V14.00,2013-06-28 04:06:00,
2013-06-28 00:11:00,79.8,79.8,29.85,SW,222,25.0,27.0,100,0.00,,---,0.00,VWS V14.00,2013-06-28 04:11:00,
2013-06-28 00:16:00,79.8,79.8,29.84,SW,225,20.0,27.0,100,0.00,,---,0.00,VWS V14.00,2013-06-28 04:16:00,
2013-06-28 00:21:00,79.9,79.9,29.84,SW,221,21.0,28.0,100,0.00,,---,0.00,VWS V14.00,2013-06-28 04:21:00,
2013-06-28 00:26:00,79.9,79.9,29.84,SW,227,25.0,31.0,100,0.00,,---,0.00,VWS V14.00,2013-06-28 04:26:00,
2013-06-28 00:31:00,79.8,79.8,29.84,SW,223,19.0,21.0,100,0.00,,---,0.00,VWS V14.00,2013-06-28 04:31:00,
2013-06-28 00:36:00,79.9,79.9,29.84,SW,230,20.0,24.0,100,0.00,,---,0.00,VWS V14.00,2013-06-28 04:36:00,
2013-06-28 00:41:00,79.9,79.9,29.84,SW,232,19.0,27.0,100,0.00,,---,0.00,VWS V14.00,2013-06-28 04:41:00,
2013-06-28 00:46:00,79.4,79.4,29.84,WSW,252,23.0,33.0,100,0.00,,---,0.00,VWS V14.00,2013-06-28 04:46:00,
2013-06-28 00:51:00,78.8,78.8,29.84,WSW,245,23.0,35.0,100,0.00,,---,0.00,VWS V14.00,2013-06-28 04:51:00,
2013-06-28 00:56:00,78.4,78.1,29.84,WSW,243,20.0,35.0,99,0.00,,---,0.00,VWS V14.00,2013-06-28 04:56:00,
2013-06-28 01:01:00,77.9,77.6,29.83,WSW,244,27.0,28.0,99,0.00,,---,0.00,VWS V14.00,2013-06-28 05:01:00,
2013-06-28 01:06:00,77.7,77.7,29.83,SW,230,22.0,29.0,100,0.00,,---,0.00,VWS V14.00,2013-06-28 05:06:00,
2013-06-28 01:11:00,77.4,77.1,29.83,WSW,239,23.0,29.0,99,0.00,,---,0.00,VWS V14.00,2013-06-28 05:11:00,
2013-06-28 01:16:00,77.3,77.3,29.83,SW,236,16.0,29.0,100,0.00,,---,0.00,VWS V14.00,2013-06-28 05:16:00,
2013-06-28 01:21:00,77.4,77.4,29.82,WSW,237,19.0,29.0,100,0.00,,---,0.00,VWS V14.00,2013-06-28 05:21:00,
2013-06-28 01:26:00,77.5,77.5,29.82,WSW,241,14.0,29.0,100,0.00,,---,0.00,VWS V14.00,2013-06-28 05:26:00,
2013-06-28 01:31:00,77.7,77.7,29.82,SW,224,15.0,23.0,100,0.00,,---,0.00,VWS V14.00,2013-06-28 05:31:00,
2013-06-28 01:36:00,77.8,77.8,29.83,SW,224,18.0,23.0,100,0.00,,---,0.00,VWS V14.00,2013-06-28 05:36:00,
2013-06-28 01:41:00,77.9,77.9,29.83,SW,217,15.0,26.0,100,0.00,,---,0.00,VWS V14.00,2013-06-28 05:41:00,
2013-06-28 01:46:00,78.0,78.0,29.82,SW,223,17.0,26.0,100,0.00,,---,0.00,VWS V14.00,2013-06-28 05:46:00,
2013-06-28 01:51:00,78.2,78.2,29.82,SW,231,19.0,26.0,100,0.00,,---,0.00,VWS V14.00,2013-06-28 05:51:00,
2013-06-28 01:56:00,78.1,78.1,29.81,SW,224,16.0,26.0,100,0.00,,---,0.00,VWS V14.00,2013-06-28 05:56:00,
2013-06-28 02:01:00,78.0,78.0,29.81,SW,219,14.0,20.0,100,0.00,,---,0.00,VWS V14.00,2013-06-28 06:01:00,
2013-06-28 02:06:00,78.0,78.0,29.81,SSW,209,15.0,23.0,100,0.00,,---,0.00,VWS V14.00,2013-06-28 06:06:00,
2013-06-28 02:11:00,78.0,78.0,29.81,SSW,205,11.0,23.0,100,0.00,,---,0.00,VWS V14.00,2013-06-28 06:11:00,
2013-06-28 02:16:00,78.1,78.1,29.81,SSW,199,12.0,23.0,100,0.00,,---,0.00,VWS V14.00,2013-06-28 06:16:00,
2013-06-28 02:21:00,78.3,78.3,29.81,SW,222,19.0,24.0,100,0.00,,---,0.00,VWS V14.00,2013-06-28 06:21:00,
2013-06-28 02:26:00,78.7,78.7,29.81,SW,222,17.0,28.0,100,0.00,,---,0.00,VWS V14.00,2013-06-28 06:26:00,
2013-06-28 02:31:00,78.9,78.9,29.81,SW,217,19.0,22.0,100,0.00,,---,0.00,VWS V14.00,2013-06-28 06:31:00,
2013-06-28 02:36:00,79.0,79.0,29.81,SW,225,23.0,26.0,100,0.00,,---,0.00,VWS V14.00,2013-06-28 06:36:00,
2013-06-28 02:41:00,79.1,79.1,29.81,SW,225,21.0,26.0,100,0.00,,---,0.00,VWS V14.00,2013-06-28 06:41:00,
2013-06-28 02:46:00,79.1,79.1,29.81,SW,229,12.0,28.0,100,0.00,,---,0.00,VWS V14.00,2013-06-28 06:46:00,
2013-06-28 02:51:00,79.1,79.1,29.81,SW,225,27.0,29.0,100,0.00,,---,0.00,VWS V14.00,2013-06-28 06:51:00,
2013-06-28 02:56:00,79.1,79.1,29.80,SW,225,15.0,29.0,100,0.00,,---,0.00,VWS V14.00,2013-06-28 06:56:00,
2013-06-28 03:01:00,79.2,79.2,29.80,SW,232,19.0,22.0,100,0.00,,---,0.00,VWS V14.00,2013-06-28 07:01:00,
2013-06-28 03:06:00,79.2,79.2,29.80,SW,218,19.0,27.0,100,0.00,,---,0.00,VWS V14.00,2013-06-28 07:06:00,
2013-06-28 03:11:00,79.2,79.2,29.79,SSW,212,21.0,30.0,100,0.00,,---,0.00,VWS V14.00,2013-06-28 07:11:00,
2013-06-28 03:16:00,79.2,79.2,29.80,SW,229,17.0,30.0,100,0.00,,---,0.00,VWS V14.00,2013-06-28 07:16:00,
2013-06-28 03:21:00,79.2,79.2,29.79,SW,218,28.0,30.0,100,0.00,,---,0.00,VWS V14.00,2013-06-28 07:21:00,
2013-06-28 03:26:00,79.2,79.2,29.79,SW,217,29.0,31.0,100,0.00,,---,0.00,VWS V14.00,2013-06-28 07:26:00,
2013-06-28 03:31:00,79.2,79.2,29.79,SW,218,23.0,23.0,100,0.00,,---,0.00,VWS V14.00,2013-06-28 07:31:00,
2013-06-28 03:36:00,79.1,79.1,29.79,SW,227,20.0,30.0,100,0.00,,---,0.00,VWS V14.00,2013-06-28 07:36:00,
2013-06-28 03:41:00,79.1,79.1,29.78,SW,232,21.0,30.0,100,0.00,,---,0.00,VWS V14.00,2013-06-28 07:41:00,
2013-06-28 03:46:00,79.1,79.1,29.78,SW,232,19.0,30.0,100,0.00,,---,0.00,VWS V14.00,2013-06-28 07:46:00,
2013-06-28 03:51:00,79.2,79.2,29.78,SW,231,19.0,30.0,100,0.00,,---,0.00,VWS V14.00,2013-06-28 07:51:00,
2013-06-28 03:56:00,79.1,79.1,29.78,SSW,212,23.0,30.0,100,0.00,,---,0.00,VWS V14.00,2013-06-28 07:56:00,
2013-06-28 04:01:00,79.1,79.1,29.77,SW,224,16.0,25.0,100,0.00,,---,0.00,VWS V14.00,2013-06-28 08:01:00,
2013-06-28 04:06:00,79.2,79.2,29.77,SW,221,26.0,32.0,100,0.00,,---,0.00,VWS V14.00,2013-06-28 08:06:00,
2013-06-28 04:11:00,79.2,79.2,29.76,SW,218,25.0,32.0,100,0.00,,---,0.00,VWS V14.00,2013-06-28 08:11:00,
2013-06-28 04:16:00,79.1,79.1,29.76,SW,224,21.0,33.0,100,0.00,,---,0.00,VWS V14.00,2013-06-28 08:16:00,
2013-06-28 04:21:00,79.1,79.1,29.75,SSW,213,17.0,33.0,100,0.00,,---,0.00,VWS V14.00,2013-06-28 08:21:00,
2013-06-28 04:26:00,79.0,79.0,29.75,SW,226,15.0,33.0,100,0.00,,---,0.00,VWS V14.00,2013-06-28 08:26:00,
2013-06-28 04:31:00,78.9,78.9,29.76,SW,218,25.0,31.0,100,0.00,,---,0.00,VWS V14.00,2013-06-28 08:31:00,
2013-06-28 04:36:00,78.9,78.9,29.75,SW,231,21.0,31.0,100,0.00,,---,0.00,VWS V14.00,2013-06-28 08:36:00,
2013-06-28 04:41:00,79.0,79.0,29.75,SW,229,13.0,31.0,100,0.00,,---,0.00,VWS V14.00,2013-06-28 08:41:00,
2013-06-28 04:46:00,79.0,79.0,29.76,SW,229,18.0,31.0,100,0.00,,---,0.00,VWS V14.00,2013-06-28 08:46:00,
2013-06-28 04:51:00,78.9,78.9,29.76,WSW,244,18.0,31.0,100,0.00,,---,0.00,VWS V14.00,2013-06-28 08:51:00,
2013-06-28 04:56:00,78.8,78.8,29.76,SW,231,12.0,31.0,100,0.00,,---,0.00,VWS V14.00,2013-06-28 08:56:00,
2013-06-28 05:01:00,78.7,78.7,29.76,SW,230,22.0,26.0,100,0.00,,---,0.00,VWS V14.00,2013-06-28 09:01:00,
2013-06-28 05:06:00,78.6,78.6,29.76,SW,221,17.0,29.0,100,0.01,,---,0.01,VWS V14.00,2013-06-28 09:06:00,
2013-06-28 05:11:00,78.5,78.5,29.76,SW,225,17.0,29.0,100,0.01,,---,0.01,VWS V14.00,2013-06-28 09:11:00,
2013-06-28 05:16:00,78.5,78.5,29.76,SW,226,21.0,29.0,100,0.01,,---,0.01,VWS V14.00,2013-06-28 09:16:00,
2013-06-28 05:21:00,78.5,78.5,29.76,SW,225,18.0,29.0,100,0.01,,---,0.01,VWS V14.00,2013-06-28 09:21:00,
2013-06-28 05:26:00,78.6,78.6,29.76,SW,220,21.0,29.0,100,0.01,,---,0.01,VWS V14.00,2013-06-28 09:26:00,
2013-06-28 05:31:00,78.6,78.6,29.76,SW,227,23.0,29.0,100,0.01,,---,0.01,VWS V14.00,2013-06-28 09:31:00,
2013-06-28 05:36:00,78.5,78.5,29.76,SW,216,17.0,29.0,100,0.01,,---,0.01,VWS V14.00,2013-06-28 09:36:00,
2013-06-28 05:41:00,78.5,78.5,29.75,SW,227,18.0,29.0,100,0.01,,---,0.01,VWS V14.00,2013-06-28 09:41:00,
2013-06-28 05:46:00,78.5,78.5,29.75,SW,219,21.0,29.0,100,0.00,,---,0.01,VWS V14.00,2013-06-28 09:46:00,
2013-06-28 05:51:00,78.5,78.5,29.75,SW,232,20.0,29.0,100,0.00,,---,0.01,VWS V14.00,2013-06-28 09:51:00,
2013-06-28 05:56:00,78.5,78.5,29.76,SW,229,17.0,29.0,100,0.00,,---,0.01,VWS V14.00,2013-06-28 09:56:00,
2013-06-28 06:01:00,78.6,78.6,29.76,WSW,237,19.0,23.0,100,0.00,,---,0.01,VWS V14.00,2013-06-28 10:01:00,
2013-06-28 06:06:00,78.6,78.6,29.76,SW,228,17.0,23.0,100,0.00,,---,0.01,VWS V14.00,2013-06-28 10:06:00,
2013-06-28 06:11:00,78.6,78.6,29.76,SW,222,18.0,26.0,100,0.00,,---,0.01,VWS V14.00,2013-06-28 10:11:00,
2013-06-28 06:16:00,78.6,78.6,29.76,SW,226,20.0,26.0,100,0.00,,---,0.01,VWS V14.00,2013-06-28 10:16:00,
2013-06-28 06:21:00,78.6,78.6,29.76,SW,228,10.0,26.0,100,0.00,,---,0.01,VWS V14.00,2013-06-28 10:21:00,
2013-06-28 06:26:00,78.6,78.6,29.76,SW,234,15.0,26.0,100,0.00,,---,0.01,VWS V14.00,2013-06-28 10:26:00,
2013-06-28 06:31:00,78.7,78.7,29.76,WSW,241,14.0,17.0,100,0.00,,---,0.01,VWS V14.00,2013-06-28 10:31:00,
2013-06-28 06:36:00,78.7,78.7,29.76,SW,235,14.0,23.0,100,0.00,,---,0.01,VWS V14.00,2013-06-28 10:36:00,
2013-06-28 06:41:00,78.7,78.7,29.76,SW,223,16.0,23.0,100,0.00,,---,0.01,VWS V14.00,2013-06-28 10:41:00,
2013-06-28 06:46:00,78.8,78.8,29.76,SW,236,18.0,23.0,100,0.00,,---,0.01,VWS V14.00,2013-06-28 10:46:00,
2013-06-28 06:51:00,78.8,78.8,29.75,SW,235,19.0,24.0,100,0.00,,---,0.01,VWS V14.00,2013-06-28 10:51:00,
2013-06-28 06:56:00,78.9,78.9,29.75,WSW,238,12.0,24.0,100,0.00,,---,0.01,VWS V14.00,2013-06-28 10:56:00,
2013-06-28 07:01:00,78.9,78.9,29.75,SW,231,14.0,21.0,100,0.00,,---,0.01,VWS V14.00,2013-06-28 11:01:00,
2013-06-28 07:06:00,78.9,78.9,29.75,SW,234,12.0,21.0,100,0.00,,---,0.01,VWS V14.00,2013-06-28 11:06:00,
2013-06-28 07:11:00,78.9,78.9,29.76,SW,236,13.0,21.0,100,0.00,,---,0.01,VWS V14.00,2013-06-28 11:11:00,
2013-06-28 07:16:00,78.9,78.9,29.76,SW,232,14.0,21.0,100,0.00,,---,0.01,VWS V14.00,2013-06-28 11:16:00,
2013-06-28 07:21:00,78.9,78.9,29.76,SW,232,9.0,21.0,100,0.00,,---,0.01,VWS V14.00,2013-06-28 11:21:00,
2013-06-28 07:26:00,78.9,78.9,29.76,WSW,238,9.0,21.0,100,0.00,,---,0.01,VWS V14.00,2013-06-28 11:26:00,
2013-06-28 07:31:00,78.8,78.8,29.76,WSW,247,14.0,20.0,100,0.00,,---,0.01,VWS V14.00,2013-06-28 11:31:00,
2013-06-28 07:36:00,78.8,78.8,29.76,WSW,253,9.0,20.0,100,0.00,,---,0.01,VWS V14.00,2013-06-28 11:36:00,
2013-06-28 07:41:00,78.9,78.9,29.76,WSW,247,11.0,20.0,100,0.00,,---,0.01,VWS V14.00,2013-06-28 11:41:00,
2013-06-28 07:46:00,78.9,78.9,29.75,WSW,241,12.0,25.0,100,0.00,,---,0.01,VWS V14.00,2013-06-28 11:46:00,
2013-06-28 07:51:00,78.9,78.9,29.75,WSW,253,16.0,25.0,100,0.00,,---,0.01,VWS V14.00,2013-06-28 11:51:00,
2013-06-28 07:56:00,78.9,78.9,29.75,WSW,246,16.0,26.0,100,0.00,,---,0.01,VWS V14.00,2013-06-28 11:56:00,
2013-06-28 08:01:00,79.0,79.0,29.75,SW,230,20.0,26.0,100,0.00,,---,0.01,VWS V14.00,2013-06-28 12:01:00,
2013-06-28 08:05:00,78.9,78.9,29.75,SW,235,16.0,26.0,100,0.00,,---,0.01,VWS V14.00,2013-06-28 12:05:00,
2013-06-28 08:10:00,78.9,78.9,29.75,WSW,248,19.0,28.0,100,0.00,,---,0.01,VWS V14.00,2013-06-28 12:10:00,
2013-06-28 08:15:00,78.7,78.7,29.75,SW,236,17.0,28.0,100,0.00,,---,0.01,VWS V14.00,2013-06-28 12:15:00,
2013-06-28 08:21:00,78.6,78.6,29.75,SW,236,18.0,28.0,100,0.00,,---,0.01,VWS V14.00,2013-06-28 12:21:00,
2013-06-28 08:25:00,78.6,78.6,29.75,SW,233,13.0,28.0,100,0.00,,---,0.01,VWS V14.00,2013-06-28 12:25:00,
2013-06-28 08:30:00,78.6,78.6,29.75,SW,232,19.0,20.0,100,0.00,,---,0.01,VWS V14.00,2013-06-28 12:30:00,
2013-06-28 08:35:00,78.5,78.5,29.75,WSW,244,19.0,26.0,100,0.00,,---,0.01,VWS V14.00,2013-06-28 12:35:00,
2013-06-28 08:40:00,78.6,78.6,29.75,WSW,244,14.0,26.0,100,0.00,,---,0.01,VWS V14.00,2013-06-28 12:40:00,
2013-06-28 08:45:00,78.6,78.6,29.75,WSW,237,18.0,26.0,100,0.00,,---,0.01,VWS V14.00,2013-06-28 12:45:00,
2013-06-28 08:50:00,78.6,78.6,29.75,WSW,246,16.0,26.0,100,0.00,,---,0.01,VWS V14.00,2013-06-28 12:50:00,
2013-06-28 08:55:00,78.7,78.7,29.75,WSW,240,13.0,26.0,100,0.00,,---,0.01,VWS V14.00,2013-06-28 12:55:00,
2013-06-28 09:00:00,78.8,78.8,29.76,WSW,238,17.0,21.0,100,0.00,,---,0.01,VWS V14.00,2013-06-28 13:00:00,
2013-06-28 09:05:00,78.9,78.9,29.75,SW,221,16.0,26.0,100,0.00,,---,0.01,VWS V14.00,2013-06-28 13:05:00,
2013-06-28 09:10:00,79.0,79.0,29.76,WSW,244,21.0,26.0,100,0.00,,---,0.01,VWS V14.00,2013-06-28 13:10:00,
2013-06-28 09:15:00,79.1,79.1,29.76,WSW,242,13.0,26.0,100,0.00,,---,0.01,VWS V14.00,2013-06-28 13:15:00,
2013-06-28 09:20:00,79.1,79.1,29.76,WSW,248,14.0,26.0,100,0.00,,---,0.01,VWS V14.00,2013-06-28 13:20:00,
2013-06-28 09:25:00,79.3,79.3,29.76,WSW,248,16.0,26.0,100,0.00,,---,0.01,VWS V14.00,2013-06-28 13:25:00,
2013-06-28 09:30:00,79.5,79.5,29.76,SW,235,15.0,20.0,100,0.00,,---,0.01,VWS V14.00,2013-06-28 13:30:00,
2013-06-28 09:35:00,79.7,79.7,29.77,WSW,240,17.0,26.0,100,0.00,,---,0.01,VWS V14.00,2013-06-28 13:35:00,
2013-06-28 09:40:00,79.6,79.6,29.76,SW,236,20.0,26.0,100,0.00,,---,0.01,VWS V14.00,2013-06-28 13:40:00,
2013-06-28 09:45:00,79.6,79.6,29.76,SW,235,15.0,26.0,100,0.00,,---,0.01,VWS V14.00,2013-06-28 13:45:00,
2013-06-28 09:50:00,79.5,79.5,29.76,WSW,237,12.0,26.0,100,0.00,,---,0.01,VWS V14.00,2013-06-28 13:50:00,
2013-06-28 09:55:00,79.6,79.6,29.77,SW,235,20.0,26.0,100,0.00,,---,0.01,VWS V14.00,2013-06-28 13:55:00,
2013-06-28 10:00:00,79.7,79.7,29.77,SW,235,15.0,19.0,100,0.00,,---,0.01,VWS V14.00,2013-06-28 14:00:00,
2013-06-28 10:05:00,79.9,79.9,29.76,WSW,237,16.0,22.0,100,0.00,,---,0.01,VWS V14.00,2013-06-28 14:05:00,
2013-06-28 10:10:00,80.1,80.1,29.76,SW,234,16.0,24.0,100,0.00,,---,0.01,VWS V14.00,2013-06-28 14:10:00,
2013-06-28 10:15:00,80.2,80.2,29.76,SW,233,14.0,26.0,100,0.00,,---,0.01,VWS V14.00,2013-06-28 14:15:00,
2013-06-28 10:20:00,80.4,80.4,29.76,SW,232,17.0,26.0,100,0.00,,---,0.01,VWS V14.00,2013-06-28 14:20:00,
2013-06-28 10:25:00,80.4,80.4,29.76,WSW,240,15.0,26.0,100,0.00,,---,0.01,VWS V14.00,2013-06-28 14:25:00,
2013-06-28 10:30:00,80.5,80.5,29.76,SW,225,17.0,23.0,100,0.00,,---,0.01,VWS V14.00,2013-06-28 14:30:00,
2013-06-28 10:35:00,80.4,80.4,29.76,SW,230,17.0,23.0,100,0.00,,---,0.01,VWS V14.00,2013-06-28 14:35:00,
2013-06-28 10:40:00,80.4,80.4,29.76,WSW,244,15.0,24.0,100,0.00,,---,0.01,VWS V14.00,2013-06-28 14:40:00,
2013-06-28 10:45:00,80.4,80.4,29.76,WSW,239,20.0,24.0,100,0.00,,---,0.01,VWS V14.00,2013-06-28 14:45:00,
2013-06-28 10:50:00,80.3,80.3,29.76,SW,234,20.0,26.0,100,0.00,,---,0.01,VWS V14.00,2013-06-28 14:50:00,
2013-06-28 10:55:00,80.2,80.2,29.76,SW,229,21.0,26.0,100,0.00,,---,0.01,VWS V14.00,2013-06-28 14:55:00,
2013-06-28 11:00:00,80.2,80.2,29.76,WSW,241,21.0,22.0,100,0.00,,---,0.01,VWS V14.00,2013-06-28 15:00:00,
2013-06-28 11:05:00,80.3,80.3,29.76,WSW,245,15.0,24.0,100,0.00,,---,0.01,VWS V14.00,2013-06-28 15:05:00,
2013-06-28 11:10:00,80.5,80.5,29.76,WSW,248,18.0,27.0,100,0.00,,---,0.01,VWS V14.00,2013-06-28 15:10:00,
2013-06-28 11:15:00,80.7,80.7,29.76,SW,234,25.0,27.0,100,0.00,,---,0.01,VWS V14.00,2013-06-28 15:15:00,
2013-06-28 11:20:00,80.9,80.9,29.75,WSW,240,16.0,30.0,100,0.00,,---,0.01,VWS V14.00,2013-06-28 15:20:00,
2013-06-28 11:25:00,81.0,81.0,29.75,SW,234,15.0,30.0,100,0.00,,---,0.01,VWS V14.00,2013-06-28 15:25:00,
2013-06-28 11:30:00,81.2,81.2,29.75,WSW,237,22.0,22.0,100,0.00,,---,0.01,VWS V14.00,2013-06-28 15:30:00,
2013-06-28 11:35:00,81.3,81.3,29.76,WSW,246,23.0,24.0,100,0.00,,---,0.01,VWS V14.00,2013-06-28 15:35:00,
2013-06-28 11:40:00,81.4,81.4,29.76,WSW,240,14.0,27.0,100,0.00,,---,0.01,VWS V14.00,2013-06-28 15:40:00,
2013-06-28 11:45:00,81.4,81.4,29.76,SW,227,17.0,27.0,100,0.00,,---,0.01,VWS V14.00,2013-06-28 15:45:00,
2013-06-28 11:50:00,81.5,81.5,29.76,SW,225,21.0,27.0,100,0.00,,---,0.01,VWS V14.00,2013-06-28 15:50:00,
2013-06-28 11:55:00,81.7,81.7,29.76,SW,236,17.0,27.0,100,0.00,,---,0.01,VWS V14.00,2013-06-28 15:55:00,
2013-06-28 12:00:00,81.8,81.8,29.76,WSW,238,17.0,23.0,100,0.00,,---,0.01,VWS V14.00,2013-06-28 16:00:00,
2013-06-28 12:05:00,81.7,81.7,29.77,SW,228,21.0,29.0,100,0.00,,---,0.01,VWS V14.00,2013-06-28 16:05:00,
2013-06-28 12:10:00,81.5,81.5,29.77,WSW,239,22.0,29.0,100,0.00,,---,0.01,VWS V14.00,2013-06-28 16:10:00,
2013-06-28 12:15:00,81.3,81.3,29.77,SW,227,20.0,29.0,100,0.00,,---,0.01,VWS V14.00,2013-06-28 16:15:00,
2013-06-28 12:20:00,81.2,81.2,29.77,SW,236,16.0,29.0,100,0.00,,---,0.01,VWS V14.00,2013-06-28 16:20:00,
2013-06-28 12:25:00,81.3,81.3,29.77,SW,226,29.0,29.0,100,0.00,,---,0.01,VWS V14.00,2013-06-28 16:25:00,
2013-06-28 12:30:00,81.4,81.4,29.76,SW,229,21.0,29.0,100,0.00,,---,0.01,VWS V14.00,2013-06-28 16:30:00,
2013-06-28 12:35:00,81.6,81.6,29.75,SW,233,19.0,30.0,100,0.00,,---,0.01,VWS V14.00,2013-06-28 16:35:00,
2013-06-28 12:40:00,81.8,81.8,29.75,SW,230,23.0,30.0,100,0.00,,---,0.01,VWS V14.00,2013-06-28 16:40:00,
2013-06-28 12:45:00,81.9,81.9,29.75,SW,233,22.0,32.0,100,0.00,,---,0.01,VWS V14.00,2013-06-28 16:45:00,
2013-06-28 12:50:00,82.1,82.1,29.75,SW,229,22.0,32.0,100,0.00,,---,0.01,VWS V14.00,2013-06-28 16:50:00,
2013-06-28 12:55:00,82.2,82.2,29.75,SW,233,23.0,32.0,100,0.00,,---,0.01,VWS V14.00,2013-06-28 16:55:00,
2013-06-28 13:00:00,82.4,82.4,29.75,WSW,237,20.0,26.0,100,0.00,,---,0.01,VWS V14.00,2013-06-28 17:00:00,
2013-06-28 13:05:00,82.4,82.4,29.75,SW,232,20.0,26.0,100,0.00,,---,0.01,VWS V14.00,2013-06-28 17:05:00,
2013-06-28 13:10:00,82.4,82.4,29.75,WSW,237,21.0,27.0,100,0.00,,---,0.01,VWS V14.00,2013-06-28 17:10:00,
2013-06-28 13:15:00,82.5,82.5,29.74,SW,226,21.0,27.0,100,0.00,,---,0.01,VWS V14.00,2013-06-28 17:15:00,
2013-06-28 13:20:00,82.8,82.8,29.75,WSW,237,14.0,27.0,100,0.00,,---,0.01,VWS V14.00,2013-06-28 17:20:00,
2013-06-28 13:25:00,83.0,83.0,29.74,WSW,242,20.0,27.0,100,0.00,,---,0.01,VWS V14.00,2013-06-28 17:25:00,
2013-06-28 13:30:00,82.7,82.7,29.74,SW,234,17.0,23.0,100,0.00,,---,0.01,VWS V14.00,2013-06-28 17:30:00,
2013-06-28 13:35:00,82.8,82.8,29.74,WSW,242,16.0,24.0,100,0.00,,---,0.01,VWS V14.00,2013-06-28 17:35:00,
2013-06-28 13:40:00,82.9,82.9,29.74,WSW,239,20.0,26.0,100,0.00,,---,0.01,VWS V14.00,2013-06-28 17:40:00,
2013-06-28 13:45:00,83.0,83.0,29.73,SW,230,22.0,28.0,100,0.00,,---,0.01,VWS V14.00,2013-06-28 17:45:00,
2013-06-28 13:50:00,83.0,83.0,29.73,SW,235,17.0,28.0,100,0.00,,---,0.01,VWS V14.00,2013-06-28 17:50:00,
2013-06-28 13:55:00,83.1,83.1,29.73,SW,221,20.0,29.0,100,0.00,,---,0.01,VWS V14.00,2013-06-28 17:55:00,
2013-06-28 14:00:00,83.4,83.4,29.73,SW,231,18.0,24.0,100,0.00,,---,0.01,VWS V14.00,2013-06-28 18:00:00,
2013-06-28 14:05:00,83.5,83.5,29.73,SW,218,17.0,26.0,100,0.00,,---,0.01,VWS V14.00,2013-06-28 18:05:00,
2013-06-28 14:10:00,83.4,83.4,29.73,SW,233,20.0,26.0,100,0.00,,---,0.01,VWS V14.00,2013-06-28 18:10:00,
2013-06-28 14:15:00,83.4,83.4,29.73,SW,236,17.0,26.0,100,0.00,,---,0.01,VWS V14.00,2013-06-28 18:15:00,
2013-06-28 14:20:00,83.5,83.5,29.73,SW,224,22.0,26.0,100,0.00,,---,0.01,VWS V14.00,2013-06-28 18:20:00,
2013-06-28 14:25:00,83.5,83.5,29.73,SW,224,21.0,27.0,100,0.00,,---,0.01,VWS V14.00,2013-06-28 18:25:00,
2013-06-28 14:30:00,83.5,83.5,29.72,SW,234,17.0,21.0,100,0.00,,---,0.01,VWS V14.00,2013-06-28 18:30:00,
2013-06-28 14:35:00,83.6,83.6,29.72,SW,230,17.0,26.0,100,0.00,,---,0.01,VWS V14.00,2013-06-28 18:35:00,
2013-06-28 14:40:00,83.7,83.7,29.72,SW,227,15.0,26.0,100,0.00,,---,0.01,VWS V14.00,2013-06-28 18:40:00,
2013-06-28 14:45:00,83.8,83.5,29.72,SW,221,17.0,26.0,99,0.00,,---,0.01,VWS V14.00,2013-06-28 18:45:00,
2013-06-28 14:50:00,83.9,83.6,29.72,SW,226,17.0,26.0,99,0.00,,---,0.01,VWS V14.00,2013-06-28 18:50:00,
2013-06-28 14:55:00,83.9,83.6,29.72,SW,222,20.0,26.0,99,0.00,,---,0.01,VWS V14.00,2013-06-28 18:55:00,
2013-06-28 15:00:00,83.9,83.6,29.72,SW,229,23.0,23.0,99,0.00,,---,0.01,VWS V14.00,2013-06-28 19:00:00,
2013-06-28 15:05:00,83.9,83.6,29.72,SW,218,13.0,26.0,99,0.00,,---,0.01,VWS V14.00,2013-06-28 19:05:00,
2013-06-28 15:10:00,84.0,83.4,29.72,SSW,211,14.0,26.0,98,0.00,,---,0.01,VWS V14.00,2013-06-28 19:10:00,
2013-06-28 15:15:00,84.0,83.4,29.72,SW,214,25.0,26.0,98,0.00,,---,0.01,VWS V14.00,2013-06-28 19:15:00,
2013-06-28 15:20:00,83.9,83.0,29.72,SSW,209,16.0,27.0,97,0.00,,---,0.01,VWS V14.00,2013-06-28 19:20:00,
2013-06-28 15:25:00,83.9,83.3,29.72,SW,214,22.0,27.0,98,0.00,,---,0.01,VWS V14.00,2013-06-28 19:25:00,
2013-06-28 15:30:00,84.0,83.4,29.72,SW,226,18.0,21.0,98,0.00,,---,0.01,VWS V14.00,2013-06-28 19:30:00,
2013-06-28 15:35:00,84.1,83.5,29.71,SSW,210,16.0,24.0,98,0.00,,---,0.01,VWS V14.00,2013-06-28 19:35:00,
2013-06-28 15:40:00,84.0,83.4,29.71,SW,218,15.0,24.0,98,0.00,,---,0.01,VWS V14.00,2013-06-28 19:40:00,
2013-06-28 15:45:00,84.0,83.4,29.71,SW,221,22.0,24.0,98,0.00,,---,0.01,VWS V14.00,2013-06-28 19:45:00,
2013-06-28 15:50:00,84.0,83.1,29.71,SW,214,22.0,25.0,97,0.00,,---,0.01,VWS V14.00,2013-06-28 19:50:00,
2013-06-28 15:55:00,83.9,83.3,29.71,SSW,211,12.0,27.0,98,0.00,,---,0.01,VWS V14.00,2013-06-28 19:55:00,
2013-06-28 16:00:00,84.0,83.1,29.71,SW,228,17.0,19.0,97,0.00,,---,0.01,VWS V14.00,2013-06-28 20:00:00,
2013-06-28 16:05:00,83.9,83.0,29.71,SW,223,18.0,25.0,97,0.00,,---,0.01,VWS V14.00,2013-06-28 20:05:00,
2013-06-28 16:10:00,83.9,83.3,29.71,SW,229,13.0,25.0,98,0.00,,---,0.01,VWS V14.00,2013-06-28 20:10:00,
2013-06-28 16:15:00,84.0,83.4,29.71,WSW,237,16.0,25.0,98,0.00,,---,0.01,VWS V14.00,2013-06-28 20:15:00,
2013-06-28 16:20:00,84.0,83.4,29.71,SW,231,12.0,28.0,98,0.00,,---,0.01,VWS V14.00,2013-06-28 20:20:00,
2013-06-28 16:25:00,83.9,83.3,29.71,SW,218,22.0,28.0,98,0.00,,---,0.01,VWS V14.00,2013-06-28 20:25:00,
2013-06-28 16:30:00,84.0,83.1,29.71,SW,230,22.0,22.0,97,0.00,,---,0.01,VWS V14.00,2013-06-28 20:30:00,
2013-06-28 16:35:00,83.9,83.0,29.71,WSW,247,23.0,25.0,97,0.00,,---,0.01,VWS V14.00,2013-06-28 20:35:00,
2013-06-28 16:40:00,83.9,83.3,29.71,SW,236,21.0,28.0,98,0.00,,---,0.01,VWS V14.00,2013-06-28 20:40:00,
2013-06-28 16:45:00,83.8,82.9,29.71,SW,220,19.0,28.0,97,0.00,,---,0.01,VWS V14.00,2013-06-28 20:45:00,
2013-06-28 16:50:00,83.7,83.4,29.71,SW,235,20.0,28.0,99,0.00,,---,0.01,VWS V14.00,2013-06-28 20:50:00,
2013-06-28 16:55:00,83.7,82.8,29.71,SW,230,12.0,28.0,97,0.00,,---,0.01,VWS V14.00,2013-06-28 20:55:00,
2013-06-28 17:00:00,83.7,82.8,29.72,SW,224,21.0,22.0,97,0.00,,---,0.01,VWS V14.00,2013-06-28 21:00:00,
2013-06-28 17:05:00,83.6,83.0,29.71,SW,230,14.0,25.0,98,0.00,,---,0.01,VWS V14.00,2013-06-28 21:05:00,
2013-06-28 17:10:00,83.5,83.2,29.71,SW,228,17.0,27.0,99,0.00,,---,0.01,VWS V14.00,2013-06-28 21:10:00,
2013-06-28 17:15:00,83.5,82.9,29.71,SW,223,17.0,30.0,98,0.00,,---,0.01,VWS V14.00,2013-06-28 21:15:00,
2013-06-28 17:20:00,83.4,83.1,29.71,SW,226,17.0,30.0,99,0.00,,---,0.01,VWS V14.00,2013-06-28 21:20:00,
2013-06-28 17:25:00,83.4,83.1,29.71,SW,229,20.0,30.0,99,0.00,,---,0.01,VWS V14.00,2013-06-28 21:25:00,
2013-06-28 17:30:00,83.3,82.7,29.70,SW,230,18.0,24.0,98,0.00,,---,0.01,VWS V14.00,2013-06-28 21:30:00,
2013-06-28 17:35:00,83.3,83.0,29.70,SW,219,13.0,27.0,99,0.00,,---,0.01,VWS V14.00,2013-06-28 21:35:00,
2013-06-28 17:40:00,83.2,82.6,29.71,SW,218,16.0,27.0,98,0.00,,---,0.01,VWS V14.00,2013-06-28 21:40:00,
2013-06-28 17:45:00,83.0,82.7,29.70,SSW,212,18.0,27.0,99,0.00,,---,0.01,VWS V14.00,2013-06-28 21:45:00,
2013-06-28 17:50:00,82.9,82.9,29.70,SW,215,17.0,27.0,100,0.00,,---,0.01,VWS V14.00,2013-06-28 21:50:00,
2013-06-28 17:55:00,82.8,82.8,29.70,SW,222,16.0,27.0,100,0.00,,---,0.01,VWS V14.00,2013-06-28 21:55:00,
2013-06-28 18:00:00,82.8,82.8,29.69,SW,218,17.0,20.0,100,0.00,,---,0.01,VWS V14.00,2013-06-28 22:00:00,
2013-06-28 18:05:00,82.6,82.6,29.69,SW,217,18.0,26.0,100,0.00,,---,0.01,VWS V14.00,2013-06-28 22:05:00,
2013-06-28 18:10:00,82.6,82.6,29.69,SSW,209,14.0,26.0,100,0.00,,---,0.01,VWS V14.00,2013-06-28 22:10:00,
2013-06-28 18:15:00,82.4,82.4,29.69,SW,223,13.0,26.0,100,0.00,,---,0.01,VWS V14.00,2013-06-28 22:15:00,
2013-06-28 18:20:00,82.2,82.2,29.69,SW,230,16.0,26.0,100,0.00,,---,0.01,VWS V14.00,2013-06-28 22:20:00,
2013-06-28 18:25:00,82.1,82.1,29.69,SW,228,18.0,26.0,100,0.00,,---,0.01,VWS V14.00,2013-06-28 22:25:00,
2013-06-28 18:30:00,82.0,82.0,29.69,SW,226,25.0,25.0,100,0.00,,---,0.01,VWS V14.00,2013-06-28 22:30:00,
2013-06-28 18:35:00,81.8,81.8,29.69,SSW,213,14.0,27.0,100,0.00,,---,0.01,VWS V14.00,2013-06-28 22:35:00,
2013-06-28 18:40:00,81.6,81.6,29.70,SW,228,19.0,27.0,100,0.00,,---,0.01,VWS V14.00,2013-06-28 22:40:00,
2013-06-28 18:45:00,81.5,81.5,29.70,SW,220,20.0,27.0,100,0.00,,---,0.01,VWS V14.00,2013-06-28 22:45:00,
2013-06-28 18:50:00,81.3,81.3,29.70,SW,232,15.0,27.0,100,0.00,,---,0.01,VWS V14.00,2013-06-28 22:50:00,
2013-06-28 18:55:00,81.2,81.2,29.70,SW,222,18.0,27.0,100,0.00,,---,0.01,VWS V14.00,2013-06-28 22:55:00,
2013-06-28 19:00:00,81.2,81.2,29.70,SW,223,20.0,23.0,100,0.00,,---,0.01,VWS V14.00,2013-06-28 23:00:00,
2013-06-28 19:05:00,81.0,81.0,29.70,SW,226,18.0,26.0,100,0.00,,---,0.01,VWS V14.00,2013-06-28 23:05:00,
2013-06-28 19:10:00,81.0,81.0,29.71,SW,226,13.0,26.0,100,0.00,,---,0.01,VWS V14.00,2013-06-28 23:10:00,
2013-06-28 19:15:00,80.9,80.9,29.71,SW,217,16.0,26.0,100,0.00,,---,0.01,VWS V14.00,2013-06-28 23:15:00,
2013-06-28 19:20:00,80.8,80.8,29.71,SW,223,18.0,26.0,100,0.00,,---,0.01,VWS V14.00,2013-06-28 23:20:00,
2013-06-28 19:25:00,80.7,80.7,29.71,SW,232,17.0,26.0,100,0.00,,---,0.01,VWS V14.00,2013-06-28 23:25:00,
2013-06-28 19:30:00,80.6,80.6,29.71,SW,224,16.0,20.0,100,0.00,,---,0.01,VWS V14.00,2013-06-28 23:30:00,
2013-06-28 19:35:00,80.5,80.5,29.72,SW,216,18.0,27.0,100,0.00,,---,0.01,VWS V14.00,2013-06-28 23:35:00,
2013-06-28 19:40:00,80.5,80.5,29.72,SW,229,23.0,27.0,100,0.00,,---,0.01,VWS V14.00,2013-06-28 23:40:00,
2013-06-28 19:45:00,80.5,80.5,29.72,SW,230,13.0,27.0,100,0.00,,---,0.01,VWS V14.00,2013-06-28 23:45:00,
2013-06-28 19:50:00,80.4,80.4,29.73,SW,228,18.0,27.0,100,0.00,,---,0.01,VWS V14.00,2013-06-28 23:50:00,
2013-06-28 19:55:00,80.4,80.4,29.72,SW,228,16.0,27.0,100,0.00,,---,0.01,VWS V14.00,2013-06-28 23:55:00,
2013-06-28 20:00:00,80.4,80.4,29.72,SW,214,17.0,18.0,100,0.00,,---,0.01,VWS V14.00,2013-06-29 00:00:00,
2013-06-28 20:05:00,80.3,80.3,29.71,SW,227,19.0,25.0,100,0.00,,---,0.01,VWS V14.00,2013-06-29 00:05:00,
2013-06-28 20:10:00,80.3,80.3,29.71,SW,224,14.0,25.0,100,0.00,,---,0.01,VWS V14.00,2013-06-29 00:10:00,
2013-06-28 20:15:00,80.2,80.2,29.71,SW,224,11.0,27.0,100,0.00,,---,0.01,VWS V14.00,2013-06-29 00:15:00,
2013-06-28 20:20:00,80.2,80.2,29.70,SW,226,17.0,27.0,100,0.00,,---,0.01,VWS V14.00,2013-06-29 00:20:00,
2013-06-28 20:25:00,80.1,80.1,29.71,SW,232,19.0,27.0,100,0.00,,---,0.01,VWS V14.00,2013-06-29 00:25:00,
2013-06-28 20:30:00,80.1,80.1,29.71,SW,218,19.0,23.0,100,0.00,,---,0.01,VWS V14.00,2013-06-29 00:30:00,
2013-06-28 20:35:00,80.1,80.1,29.71,SW,221,13.0,26.0,100,0.00,,---,0.01,VWS V14.00,2013-06-29 00:35:00,
2013-06-28 20:40:00,80.0,80.0,29.71,SW,217,15.0,27.0,100,0.00,,---,0.01,VWS V14.00,2013-06-29 00:40:00,
2013-06-28 20:45:00,80.0,80.0,29.70,SW,220,23.0,27.0,100,0.00,,---,0.01,VWS V14.00,2013-06-29 00:45:00,
2013-06-28 20:50:00,79.9,79.9,29.70,SW,219,17.0,28.0,100,0.00,,---,0.01,VWS V14.00,2013-06-29 00:50:00,
2013-06-28 20:55:00,79.9,79.9,29.70,SW,222,13.0,28.0,100,0.00,,---,0.01,VWS V14.00,2013-06-29 00:55:00,
2013-06-28 21:00:00,79.9,79.9,29.71,SW,225,17.0,22.0,100,0.00,,---,0.01,VWS V14.00,2013-06-29 01:00:00,
2013-06-28 21:05:00,79.9,79.9,29.71,SW,235,22.0,24.0,100,0.00,,---,0.01,VWS V14.00,2013-06-29 01:05:00,
2013-06-28 21:10:00,79.9,79.9,29.72,SW,233,19.0,25.0,100,0.00,,---,0.01,VWS V14.00,2013-06-29 01:10:00,
2013-06-28 21:15:00,79.8,79.8,29.72,SW,235,17.0,25.0,100,0.00,,---,0.01,VWS V14.00,2013-06-29 01:15:00,
2013-06-28 21:20:00,79.8,79.8,29.72,SW,230,16.0,26.0,100,0.00,,---,0.01,VWS V14.00,2013-06-29 01:20:00,
2013-06-28 21:25:00,79.8,79.8,29.72,SW,234,15.0,26.0,100,0.00,,---,0.01,VWS V14.00,2013-06-29 01:25:00,
2013-06-28 21:30:00,79.7,79.7,29.72,SW,235,22.0,28.0,100,0.00,,---,0.01,VWS V14.00,2013-06-29 01:30:00,
2013-06-28 21:35:00,79.7,79.7,29.72,SW,233,14.0,28.0,100,0.00,,---,0.01,VWS V14.00,2013-06-29 01:35:00,
2013-06-28 21:40:00,79.7,79.7,29.73,SW,228,16.0,28.0,100,0.00,,---,0.01,VWS V14.00,2013-06-29 01:40:00,
2013-06-28 21:45:00,79.7,79.7,29.73,SW,233,18.0,28.0,100,0.00,,---,0.01,VWS V14.00,2013-06-29 01:45:00,
2013-06-28 21:50:00,79.7,79.7,29.73,SW,232,19.0,28.0,100,0.00,,---,0.01,VWS V14.00,2013-06-29 01:50:00,
2013-06-28 21:55:00,79.7,79.7,29.73,WSW,240,13.0,28.0,100,0.00,,---,0.01,VWS V14.00,2013-06-29 01:55:00,
2013-06-28 22:00:00,79.6,79.6,29.73,SW,236,20.0,23.0,100,0.00,,---,0.01,VWS V14.00,2013-06-29 02:00:00,
2013-06-28 22:05:00,79.6,79.6,29.74,SW,230,22.0,23.0,100,0.00,,---,0.01,VWS V14.00,2013-06-29 02:05:00,
2013-06-28 22:10:00,79.6,79.6,29.73,SW,225,15.0,23.0,100,0.00,,---,0.01,VWS V14.00,2013-06-29 02:10:00,
2013-06-28 22:15:00,79.6,79.6,29.74,SW,222,16.0,23.0,100,0.00,,---,0.01,VWS V14.00,2013-06-29 02:15:00,
2013-06-28 22:20:00,79.6,79.6,29.74,SW,219,16.0,23.0,100,0.00,,---,0.01,VWS V14.00,2013-06-29 02:20:00,
2013-06-28 22:25:00,79.7,79.7,29.74,SW,222,16.0,25.0,100,0.00,,---,0.01,VWS V14.00,2013-06-29 02:25:00,
2013-06-28 22:30:00,79.6,79.6,29.74,SW,233,16.0,20.0,100,0.00,,---,0.01,VWS V14.00,2013-06-29 02:30:00,
2013-06-28 22:35:00,79.7,79.7,29.74,SW,229,19.0,25.0,100,0.00,,---,0.01,VWS V14.00,2013-06-29 02:35:00,
2013-06-28 22:40:00,79.6,79.6,29.74,SW,227,14.0,25.0,100,0.00,,---,0.01,VWS V14.00,2013-06-29 02:40:00,
2013-06-28 22:45:00,79.6,79.6,29.74,SW,232,16.0,25.0,100,0.00,,---,0.01,VWS V14.00,2013-06-29 02:45:00,
2013-06-28 22:50:00,79.6,79.6,29.74,SW,228,16.0,25.0,100,0.00,,---,0.01,VWS V14.00,2013-06-29 02:50:00,
2013-06-28 22:55:00,79.6,79.6,29.74,SW,226,14.0,25.0,100,0.00,,---,0.01,VWS V14.00,2013-06-29 02:55:00,
2013-06-28 23:00:00,79.6,79.6,29.74,SW,236,14.0,14.0,100,0.00,,---,0.01,VWS V14.00,2013-06-29 03:00:00,
2013-06-28 23:05:00,79.6,79.6,29.74,SW,225,15.0,19.0,100,0.00,,---,0.01,VWS V14.00,2013-06-29 03:05:00,
2013-06-28 23:10:00,79.6,79.6,29.73,SW,226,12.0,19.0,100,0.00,,---,0.01,VWS V14.00,2013-06-29 03:10:00,
2013-06-28 23:15:00,79.5,79.5,29.73,SW,227,13.0,20.0,100,0.00,,---,0.01,VWS V14.00,2013-06-29 03:15:00,
2013-06-28 23:20:00,79.5,79.5,29.72,SW,225,11.0,20.0,100,0.00,,---,0.01,VWS V14.00,2013-06-29 03:20:00,
2013-06-28 23:25:00,79.4,79.4,29.71,SW,232,15.0,20.0,100,0.00,,---,0.01,VWS V14.00,2013-06-29 03:25:00,
2013-06-28 23:30:00,79.4,79.4,29.71,SSW,212,9.0,20.0,100,0.00,,---,0.01,VWS V14.00,2013-06-29 03:30:00,
2013-06-28 23:35:00,79.4,79.4,29.70,SW,236,15.0,22.0,100,0.00,,---,0.01,VWS V14.00,2013-06-29 03:35:00,
2013-06-28 23:40:00,79.4,79.4,29.71,SW,234,16.0,22.0,100,0.00,,---,0.01,VWS V14.00,2013-06-29 03:40:00,
2013-06-28 23:45:00,79.4,79.4,29.71,SW,226,11.0,22.0,100,0.00,,---,0.01,VWS V14.00,2013-06-29 03:45:00,
2013-06-28 23:50:00,79.4,79.4,29.72,SW,231,11.0,22.0,100,0.00,,---,0.01,VWS V14.00,2013-06-29 03:50:00,
2013-06-28 23:55:00,79.4,79.4,29.71,SW,230,12.0,22.0,100,0.00,,---,0.01,VWS V14.00,2013-06-29 03:55:00,